DW7902 Weather Reports


time (UTC)temp
C
wind
direction
speed
KPH
gust
KPH
rain 1hr
cm
rain 24hr
cm
rain mn
cm
humidity
%
barometer
mb
20260506151037 15 0 1.6 6.4 0.00 0.00 0.00 85 1020.3
20260506150537 15 0 0.0 6.4 0.00 0.00 0.00 85 1020.3
20260506150052 15 0 0.0 6.4 0.00 0.00 0.00 85 1020.2
20260506145537 15 159 0.0 6.4 0.00 0.00 0.00 85 1020.3
20260506145035 15 0 0.0 6.4 0.00 0.00 0.00 85 1020.3
20260506144551 15 0 0.0 4.8 0.00 0.00 0.00 85 1020.3
20260506144039 15 0 0.0 4.8 0.00 0.00 0.00 85 1020.3
20260506143537 14 0 0.0 4.8 0.00 0.00 0.00 85 1020.3
20260506143051 14 157 0.0 4.8 0.00 0.00 0.00 85 1020.2
20260506142536 14 0 0.0 1.6 0.00 0.00 0.00 85 1020.2
20260506142040 14 0 0.0 3.2 0.00 0.00 0.00 85 1020.1
20260506141546 14 157 0.0 3.2 0.00 0.00 0.00 85 1020.1
20260506141036 14 157 0.0 3.2 0.00 0.00 0.00 85 1020.1
20260506140536 14 0 0.0 3.2 0.00 0.00 0.00 85 1020.0
20260506140051 14 0 0.0 4.8 0.00 0.00 0.00 85 1019.9
20260506135537 14 0 0.0 4.8 0.00 0.00 0.00 85 1019.9
20260506135037 14 0 0.0 4.8 0.00 0.00 0.00 86 1019.8
20260506134549 14 0 1.6 4.8 0.00 0.00 0.00 86 1019.7
20260506134037 14 158 1.6 4.8 0.00 0.00 0.00 86 1019.7
20260506133536 14 0 0.0 4.8 0.00 0.00 0.00 86 1019.7
20260506133101 14 0 0.0 4.8 0.00 0.00 0.00 86 1019.7
20260506132536 14 140 1.6 4.8 0.00 0.00 0.00 86 1019.6
20260506132042 14 0 0.0 4.8 0.00 0.00 0.00 86 1019.7
20260506131600 14 0 0.0 4.8 0.00 0.00 0.00 86 1019.5
20260506131036 14 0 1.6 4.8 0.00 0.00 0.00 86 1019.5
20260506130540 14 0 0.0 3.2 0.00 0.00 0.00 87 1019.5
20260506130052 14 0 0.0 3.2 0.00 0.00 0.00 87 1019.5
20260506125537 14 0 0.0 3.2 0.00 0.00 0.00 87 1019.4
20260506125039 14 0 0.0 3.2 0.00 0.00 0.00 87 1019.4
20260506124544 14 0 0.0 3.2 0.00 0.00 0.00 87 1019.4
20260506124036 14 0 0.0 1.6 0.00 0.00 0.00 87 1019.3
20260506123536 14 0 0.0 3.2 0.00 0.00 0.00 87 1019.3
20260506123042 14 0 0.0 3.2 0.00 0.00 0.00 87 1019.3
20260506122536 14 0 0.0 1.6 0.00 0.00 0.00 87 1019.3
20260506122038 14 0 0.0 1.6 0.00 0.00 0.00 87 1019.3
20260506121549 14 0 0.0 3.2 0.00 0.00 0.00 86 1019.3
20260506121037 14 0 0.0 3.2 0.00 0.00 0.00 86 1019.2
20260506120541 14 0 0.0 3.2 0.00 0.00 0.00 86 1019.1
20260506120050 14 0 0.0 1.6 0.00 0.00 0.00 86 1019.1
20260506115538 15 0 0.0 3.2 0.00 0.00 0.00 86 1019.0
20260506115036 15 0 0.0 3.2 0.00 0.00 0.00 86 1018.9
20260506114546 15 0 0.0 3.2 0.00 0.00 0.00 86 1018.9
20260506114036 15 0 0.0 3.2 0.00 0.00 0.00 86 1018.9
20260506113536 15 0 0.0 3.2 0.00 0.00 0.00 86 1018.8
20260506113051 15 0 0.0 0.0 0.00 0.00 0.00 86 1018.8
20260506112538 15 0 0.0 1.6 0.00 0.00 0.00 86 1018.8
20260506112037 15 0 0.0 3.2 0.00 0.00 0.00 86 1018.7
20260506111544 15 0 0.0 3.2 0.00 0.00 0.00 86 1018.7
20260506111036 15 0 0.0 4.8 0.00 0.00 0.00 86 1018.6
20260506110538 15 0 1.6 4.8 0.00 0.00 0.00 86 1018.7
20260506110041 15 0 0.0 4.8 0.00 0.00 0.00 86 1018.7
20260506105540 15 0 1.6 4.8 0.00 0.00 0.00 86 1018.6
20260506105038 15 115 1.6 4.8 0.00 0.00 0.00 86 1018.5
20260506104550 15 116 0.0 4.8 0.00 0.00 0.00 86 1018.6
20260506104036 15 115 0.0 4.8 0.00 0.00 0.00 86 1018.5
20260506103536 15 0 1.6 4.8 0.00 0.00 0.00 86 1018.5
20260506103044 15 132 0.0 4.8 0.00 0.00 0.00 86 1018.5
20260506102537 15 132 0.0 3.2 0.00 0.00 0.00 86 1018.4
20260506102037 15 0 0.0 4.8 0.00 0.00 0.00 86 1018.4
20260506101546 15 132 0.0 4.8 0.00 0.00 0.00 86 1018.4
20260506101036 15 136 0.0 4.8 0.00 0.00 0.00 86 1018.4
20260506100538 15 139 0.0 3.2 0.00 0.00 0.00 86 1018.2
20260506100045 15 139 0.0 3.2 0.00 0.00 0.00 86 1018.3
20260506095542 15 0 0.0 3.2 0.00 0.00 0.00 86 1018.2
20260506095038 15 0 0.0 3.2 0.00 0.00 0.00 86 1018.3
20260506094549 15 141 0.0 3.2 0.00 0.00 0.00 86 1018.3
20260506094035 15 0 0.0 3.2 0.00 0.00 0.00 86 1018.3
20260506093536 15 0 0.0 3.2 0.00 0.00 0.00 86 1018.3
20260506093048 15 0 0.0 3.2 0.00 0.00 0.00 86 1018.2
20260506092537 15 0 0.0 1.6 0.00 0.00 0.00 86 1018.2
20260506092037 15 0 0.0 1.6 0.00 0.00 0.00 86 1018.2
20260506091549 15 0 0.0 1.6 0.00 0.00 0.00 86 1018.4
20260506091036 15 0 0.0 1.6 0.00 0.00 0.00 86 1018.3
20260506090536 15 0 0.0 3.2 0.00 0.00 0.00 86 1018.2
20260506090046 15 0 0.0 3.2 0.00 0.00 0.00 85 1018.3
20260506085536 15 0 0.0 1.6 0.00 0.00 0.00 85 1018.3
20260506085036 15 0 0.0 1.6 0.00 0.00 0.00 85 1018.4
20260506084550 15 0 0.0 1.6 0.00 0.00 0.00 85 1018.3
20260506084036 15 0 0.0 1.6 0.00 0.00 0.00 85 1018.3
20260506083538 15 0 0.0 3.2 0.00 0.00 0.00 85 1018.3
20260506083051 15 0 0.0 3.2 0.00 0.00 0.00 85 1018.2
20260506082536 15 0 0.0 3.2 0.00 0.00 0.00 85 1018.1
20260506082036 15 0 0.0 0.0 0.00 0.00 0.00 85 1018.2
20260506081544 15 0 0.0 1.6 0.00 0.00 0.00 85 1018.2
20260506081037 15 0 0.0 4.8 0.00 0.00 0.00 85 1018.2
20260506080537 15 142 0.0 4.8 0.00 0.00 0.00 85 1018.1
20260506073048 15 0 0.0 3.2 0.00 0.05 0.00 85 1017.8
20260506072540 15 142 0.0 3.2 0.00 0.05 0.00 85 1017.8
20260506072038 15 0 0.0 4.8 0.00 0.05 0.00 84 1017.8
20260506071548 15 0 0.0 4.8 0.00 0.05 0.00 84 1017.7
20260506071038 15 142 0.0 3.2 0.00 0.05 0.00 84 1017.6
20260506070537 15 0 0.0 6.4 0.00 0.05 0.00 84 1017.6
20260506062039 16 0 0.0 3.2 0.00 0.18 0.05 82 1017.2
20260506061551 16 0 0.0 1.6 0.00 0.18 0.05 82 1017.3
20260506061040 16 0 0.0 1.6 0.00 0.18 0.05 82 1017.1
20260506060537 16 0 0.0 3.2 0.00 0.18 0.05 82 1017.1
20260506060104 16 0 0.0 3.2 0.00 0.18 0.05 82 1017.2
20260506051036 16 178 0.0 6.4 0.00 0.20 0.05 81 1016.7
20260506050536 16 0 0.0 8.0 0.00 0.20 0.05 81 1016.7
20260506045039 16 0 0.0 3.2 0.00 0.38 0.05 80 1016.6
20260506044603 16 0 0.0 3.2 0.00 0.38 0.05 80 1016.4
20260506044039 16 0 0.0 4.8 0.00 0.38 0.05 79 1016.4
20260506043537 16 0 0.0 4.8 0.00 0.38 0.05 79 1016.3
20260506043049 16 147 0.0 4.8 0.00 0.38 0.05 79 1016.3
20260506042537 16 0 0.0 4.8 0.00 0.38 0.05 79 1016.3
20260506042038 16 0 0.0 6.4 0.00 0.38 0.05 79 1016.2
20260506041552 16 147 1.6 6.4 0.00 0.38 0.05 78 1016.2
20260506041037 16 147 1.6 8.0 0.00 0.38 0.05 78 1016.2
20260506040536 16 147 1.6 8.0 0.00 0.38 0.05 78 1016.1
20260506040048 16 148 3.2 8.0 0.00 0.38 0.05 78 1016.0
20260506035541 16 140 1.6 9.7 0.00 0.64 0.05 78 1015.9
20260506035037 17 137 1.6 9.7 0.00 0.64 0.05 78 1015.8
20260506034544 17 147 1.6 12.9 0.00 0.64 0.05 77 1015.7
20260506034036 17 140 4.8 12.9 0.00 0.64 0.05 77 1015.6
20260506033536 17 142 3.2 12.9 0.00 0.64 0.05 77 1015.4
20260506033049 17 143 3.2 9.7 0.00 0.64 0.05 77 1015.5
20260506032539 17 144 3.2 8.0 0.00 0.64 0.05 76 1015.5
20260506032041 17 129 1.6 6.4 0.00 0.64 0.05 75 1015.5
20260506031551 17 104 1.6 6.4 0.00 0.64 0.05 75 1015.4
20260506031040 17 104 0.0 6.4 0.00 0.64 0.05 75 1015.3
20260506030539 17 105 1.6 6.4 0.00 0.64 0.05 74 1015.3
20260506030048 17 101 0.0 6.4 0.00 0.64 0.05 74 1015.1
20260506025536 17 98 3.2 9.7 0.00 0.79 0.05 74 1015.1
20260506025036 17 96 1.6 9.7 0.00 0.79 0.05 73 1015.1
20260506024556 17 96 1.6 9.7 0.00 0.79 0.05 74 1015.0
20260506024036 17 146 1.6 6.4 0.00 0.79 0.05 74 1015.0
20260506023537 17 105 1.6 6.4 0.00 0.79 0.05 74 1014.9
20260506023053 17 105 3.2 6.4 0.00 0.79 0.05 74 1014.8
20260506022537 17 107 0.0 6.4 0.00 0.79 0.05 74 1014.7
20260506022036 17 107 1.6 6.4 0.00 0.79 0.05 73 1014.8
20260506021549 17 107 3.2 6.4 0.00 0.79 0.05 72 1014.7
20260506021039 17 109 0.0 6.4 0.00 0.79 0.05 72 1014.6
20260506020539 18 0 0.0 6.4 0.00 0.79 0.05 72 1014.6
20260506020047 18 108 0.0 6.4 0.00 0.79 0.05 72 1014.6
20260506015539 18 0 1.6 6.4 0.00 1.14 0.05 72 1014.6
20260506015037 18 112 1.6 11.3 0.00 1.14 0.05 72 1014.6
20260506014546 18 112 1.6 11.3 0.00 1.14 0.05 71 1014.5
20260506014039 18 161 3.2 11.3 0.00 1.14 0.05 71 1014.4
20260506013536 18 109 3.2 11.3 0.00 1.14 0.05 71 1014.5
20260506013046 18 157 3.2 9.7 0.00 1.14 0.05 71 1014.5
20260506012536 18 146 3.2 11.3 0.00 1.14 0.05 71 1014.5
20260506012039 18 147 3.2 11.3 0.00 1.14 0.05 70 1014.4
20260506011550 18 0 4.8 11.3 0.00 1.14 0.05 70 1014.4
20260506011036 18 136 3.2 14.5 0.00 1.14 0.05 70 1014.4
20260506010539 18 148 3.2 14.5 0.00 1.14 0.05 70 1014.4
20260506010049 18 132 4.8 14.5 0.00 1.14 0.05 70 1014.3
20260506005537 18 117 1.6 11.3 0.00 1.42 0.05 70 1014.3
20260506005036 18 110 4.8 11.3 0.00 1.42 0.05 69 1014.2
20260506004552 18 148 1.6 11.3 0.00 1.42 0.05 70 1014.3
20260506004036 18 125 3.2 11.3 0.00 1.42 0.05 70 1014.3
20260506003539 18 109 4.8 11.3 0.00 1.42 0.05 70 1014.3
20260506003054 18 149 4.8 11.3 0.00 1.42 0.05 70 1014.3
20260506002539 18 153 4.8 11.3 0.00 1.42 0.05 69 1014.3
20260506002039 18 95 1.6 11.3 0.00 1.42 0.05 70 1014.3
20260506001606 18 90 4.8 11.3 0.00 1.42 0.05 70 1014.2
20260506001039 18 0 1.6 9.7 0.00 1.42 0.05 69 1014.2
20260506000539 18 106 3.2 9.7 0.00 1.42 0.05 68 1014.2
20260506000049 18 80 1.6 6.4 0.00 1.42 0.05 70 1014.2
20260505235536 18 79 1.6 8.0 0.00 1.47 0.05 68 1014.1
20260505235036 18 78 3.2 8.0 0.00 1.47 0.05 69 1014.2
20260505234550 18 77 1.6 8.0 0.00 1.47 0.05 70 1014.2
20260505234040 18 81 1.6 9.7 0.00 1.47 0.05 70 1014.2
20260505233536 18 80 4.8 9.7 0.00 1.47 0.05 69 1014.3
20260505233045 18 116 1.6 6.4 0.00 1.47 0.05 70 1014.3
20260505232537 18 88 1.6 9.7 0.00 1.47 0.05 69 1014.3
20260505232036 18 89 3.2 9.7 0.00 1.47 0.05 70 1014.3
20260505231557 18 103 1.6 9.7 0.00 1.47 0.05 69 1014.3
20260505231036 18 90 3.2 9.7 0.00 1.47 0.05 70 1014.3
20260505230536 18 83 3.2 9.7 0.00 1.47 0.05 69 1014.3
20260505230055 18 100 4.8 9.7 0.00 1.47 0.05 69 1014.3
20260505225536 18 85 0.0 9.7 0.00 1.70 0.05 70 1014.4
20260505225041 18 0 1.6 8.0 0.00 1.70 0.05 70 1014.4
20260505224549 18 175 3.2 8.0 0.00 1.70 0.05 69 1014.5
20260505224036 18 132 0.0 4.8 0.00 1.70 0.05 70 1014.5
20260505223539 18 133 0.0 8.0 0.00 1.70 0.05 68 1014.5
20260505223048 18 0 1.6 9.7 0.00 1.70 0.05 69 1014.5
20260505222537 18 0 1.6 9.7 0.00 1.70 0.05 71 1014.6
20260505222039 18 0 1.6 6.4 0.00 1.70 0.05 70 1014.6
20260505221548 18 108 0.0 8.0 0.00 1.70 0.05 72 1014.7
20260505221037 18 174 1.6 8.0 0.00 1.70 0.05 73 1014.7
20260505220536 17 0 1.6 4.8 0.00 1.70 0.05 74 1014.7
20260505220044 17 0 0.0 3.2 0.00 1.70 0.05 71 1014.9
20260505215539 17 207 0.0 3.2 0.00 1.80 0.05 70 1015.0
20260505215036 17 0 0.0 9.7 0.00 1.80 0.05 73 1014.9
20260505214550 17 0 0.0 9.7 0.00 1.80 0.05 72 1015.0
20260505214037 17 0 3.2 9.7 0.00 1.80 0.05 72 1015.1
20260505213536 17 216 1.6 9.7 0.00 1.80 0.05 72 1015.1
20260505213056 17 214 1.6 9.7 0.00 1.80 0.05 72 1015.1
20260505212536 17 0 0.0 4.8 0.00 1.80 0.05 74 1015.1
20260505212036 17 0 0.0 4.8 0.00 1.80 0.05 71 1015.1
20260505211547 17 173 0.0 4.8 0.00 1.80 0.05 73 1015.1
20260505211041 17 219 0.0 9.7 0.00 1.80 0.05 74 1015.1
20260505210537 17 219 3.2 11.3 0.00 1.80 0.05 73 1015.1
20260505210054 17 0 1.6 11.3 0.00 1.80 0.05 75 1015.1
20260505205538 17 0 0.0 9.7 0.00 1.88 0.05 73 1015.1
20260505205035 17 216 1.6 11.3 0.00 1.88 0.05 74 1015.1
20260505204559 17 0 0.0 11.3 0.00 1.88 0.05 77 1015.1
20260505204039 17 218 3.2 11.3 0.00 1.88 0.05 75 1015.1
20260505203536 16 0 1.6 9.7 0.00 1.88 0.05 78 1015.1
20260505203103 16 195 0.0 12.9 0.00 1.88 0.05 79 1015.2
20260505202537 16 163 1.6 12.9 0.00 1.88 0.05 79 1015.2
20260505202036 16 221 4.8 12.9 0.00 1.88 0.05 79 1015.3
20260505201554 16 225 1.6 8.0 0.00 1.88 0.05 80 1015.3
20260505201038 16 223 3.2 11.3 0.00 1.88 0.05 80 1015.4
20260505200538 16 223 4.8 11.3 0.00 1.88 0.05 79 1015.4
20260505200050 16 184 0.0 6.4 0.00 1.88 0.05 78 1015.3
20260505195541 16 0 0.0 6.4 0.00 1.88 0.05 79 1015.4
20260505195037 16 0 1.6 6.4 0.00 1.88 0.05 79 1015.3
20260505194550 16 0 3.2 6.4 0.00 1.88 0.05 78 1015.4
20260505194036 16 0 1.6 11.3 0.00 1.88 0.05 80 1015.5
20260505193537 16 203 3.2 11.3 0.00 1.88 0.05 78 1015.5
20260505193050 16 290 3.2 11.3 0.00 1.88 0.05 79 1015.5
20260505192539 16 0 1.6 8.0 0.00 1.88 0.05 78 1015.5
20260505192036 16 0 0.0 6.4 0.00 1.88 0.05 79 1015.5
20260505191610 16 0 0.0 4.8 0.00 1.88 0.05 78 1015.4
20260505191036 16 0 0.0 8.0 0.00 1.88 0.05 77 1015.4
20260505190538 16 0 1.6 8.0 0.00 1.88 0.05 78 1015.4
20260505190050 16 192 1.6 8.0 0.00 1.88 0.05 79 1015.4
20260505185537 16 227 1.6 8.0 0.00 1.88 0.05 78 1015.5
20260505185038 15 146 1.6 9.7 0.00 1.88 0.05 80 1015.5
20260505184549 16 132 4.8 9.7 0.00 1.88 0.05 79 1015.4
20260505184037 16 172 0.0 8.0 0.00 1.88 0.05 81 1015.4
20260505183536 15 164 1.6 8.0 0.00 1.88 0.05 81 1015.4
20260505183049 15 177 0.0 4.8 0.00 1.88 0.05 81 1015.4
20260505182536 15 0 0.0 4.8 0.00 1.88 0.05 81 1015.4
20260505182038 15 0 0.0 4.8 0.00 1.88 0.05 81 1015.4
20260505181544 15 178 0.0 4.8 0.00 1.88 0.05 81 1015.4
20260505181040 15 184 1.6 8.0 0.00 1.88 0.05 82 1015.3
20260505180536 15 0 0.0 8.0 0.00 1.88 0.05 82 1015.4
20260505180100 15 158 0.0 6.4 0.00 1.88 0.05 82 1015.4
20260505175536 15 175 0.0 4.8 0.00 1.88 0.05 84 1015.4
20260505175039 15 0 1.6 4.8 0.00 1.88 0.05 83 1015.3
20260505174554 15 0 0.0 4.8 0.00 1.88 0.05 84 1015.3
20260505174038 15 0 0.0 4.8 0.00 1.88 0.05 86 1015.3
20260505173536 14 0 0.0 4.8 0.00 1.88 0.05 87 1015.3
20260505173049 14 140 0.0 8.0 0.00 1.88 0.05 88 1015.3
20260505172537 13 142 1.6 8.0 0.00 1.88 0.05 87 1015.3
20260505172039 13 150 3.2 8.0 0.00 1.88 0.05 88 1015.3
20260505171548 13 0 0.0 8.0 0.00 1.88 0.05 89 1015.3
20260505171035 13 0 3.2 9.7 0.00 1.88 0.05 88 1015.4
20260505170540 13 154 3.2 9.7 0.00 1.88 0.05 89 1015.4
20260505170046 13 0 1.6 11.3 0.00 1.88 0.05 89 1015.4
20260505165536 13 0 3.2 11.3 0.00 1.88 0.05 90 1015.3
20260505165036 13 0 1.6 8.0 0.00 1.88 0.05 90 1015.3
20260505164543 13 0 0.0 8.0 0.00 1.88 0.05 91 1015.3
20260505164037 13 143 1.6 8.0 0.00 1.88 0.05 90 1015.2
20260505163538 13 157 1.6 8.0 0.00 1.88 0.05 91 1015.2
20260505163048 13 134 3.2 6.4 0.00 1.88 0.05 92 1015.2
20260505162536 13 0 1.6 11.3 0.00 1.88 0.05 92 1015.1
20260505162037 12 112 3.2 11.3 0.00 1.88 0.05 92 1015.1
20260505161552 12 160 3.2 14.5 0.00 1.88 0.05 93 1015.1
20260505161037 12 177 4.8 14.5 0.00 1.88 0.05 93 1015.1
20260505160537 12 133 3.2 14.5 0.00 1.88 0.05 93 1015.1
20260505153048 12 0 1.6 6.4 0.00 1.88 0.05 94 1015.0
20260505152538 12 113 0.0 6.4 0.00 1.88 0.05 94 1014.9
20260505152035 12 118 0.0 9.7 0.00 1.88 0.05 94 1014.8
20260505151548 11 139 3.2 9.7 0.00 1.88 0.05 94 1014.8